User: anonymous   Login
Location: Unspecified
(0.0000°N, 0.0000°E)
Time: 16:39:04
(UTC+02:00)
Language:

Orbus 21S - Orbit

View from above orbital plane
View from above orbital plane
View from above satellite
View from above satellite

Ground track
Ground track

The orbit data is extracted from the following two-line orbital elements,

1 20669U 90056C   14295.12252331  .00001821  00000-0  17849-2 0  3989
2 20669 024.1139 130.4418 7121222 048.7337 044.4502 02.44637742203491
Epoch (UTC): 22 October 2014 02:56:26
Eccentricity: 0.7121222
inclination: 24.1139°
perigee height: 319 km
apogee height: 33455 km
right ascension of ascending node: 130.4418°
argument of perigee: 48.7337°
revolutions per day: 2.44637742
mean anomaly at epoch: 44.4502°
orbit number at epoch: 20349

The dashed part of the orbit path shows where the satellite is in the earth's shadow,  

DLR